This is the latest recevied weather packets stored in our database for station/object N6DZK. If no packets are shown the sender has not sent any weather packets the latest 10 day(s).
| Time | Temp. | Humidity | Pressure | Rain* | Wind** | Luminosity | Snow |
|---|---|---|---|---|---|---|---|
| 1778023410 | 17.22° C | 66% | 1015.7 hPa | 0 mm | - | 169 W/m² | - |
| 1778023106 | 17.22° C | 68% | 1015.9 hPa | 0 mm | - | 162 W/m² | - |
| 1778022804 | 16.67° C | 66% | 1015.8 hPa | 0 mm | - | 160 W/m² | - |
| 1778022502 | 16.67° C | 68% | 1016 hPa | 0 mm | - | 148 W/m² | - |
| 1778022199 | 16.67° C | 66% | 1016.2 hPa | 0 mm | - | 162 W/m² | - |
| 1778021895 | 16.67° C | 66% | 1015.8 hPa | 0 mm | - | 169 W/m² | - |
| 1778021592 | 16.67° C | 67% | 1015.9 hPa | 0 mm | - | 180 W/m² | - |
| 1778021287 | 16.67° C | 67% | 1016.1 hPa | 0 mm | - | 173 W/m² | - |
| 1778020986 | 16.67° C | 67% | 1016.1 hPa | 0 mm | - | 156 W/m² | - |
| 1778020683 | 16.67° C | 68% | 1015.9 hPa | 0 mm | - | 144 W/m² | - |
| 1778020379 | 16.67° C | 67% | 1016.2 hPa | 0 mm | - | 148 W/m² | - |
| 1778020075 | 16.67° C | 68% | 1016.3 hPa | 0 mm | - | 145 W/m² | - |
| 1778019771 | 16.67° C | 68% | 1016.4 hPa | 0 mm | - | 166 W/m² | - |
| 1778019469 | 16.67° C | 68% | 1016.2 hPa | 0 mm | - | 195 W/m² | - |
| 1778019165 | 16.67° C | 68% | 1016.3 hPa | 0 mm | - | 189 W/m² | - |
| 1778018862 | 16.67° C | 67% | 1016.2 hPa | 0 mm | - | 174 W/m² | - |
| 1778018559 | 16.67° C | 67% | 1016.2 hPa | 0 mm | - | 150 W/m² | - |
| 1778018258 | 17.22° C | 65% | 1016.3 hPa | 0 mm | - | 169 W/m² | - |
| 1778017955 | 17.22° C | 64% | 1016.2 hPa | 0 mm | - | 195 W/m² | - |
| 1778017653 | 17.78° C | 64% | 1016.3 hPa | 0 mm | - | 188 W/m² | - |
| 1778017350 | 17.78° C | 63% | 1016.2 hPa | 0 mm | - | 262 W/m² | - |
| 1778017047 | 17.78° C | 64% | 1016.4 hPa | 0 mm | - | 408 W/m² | - |
| 1778016744 | 17.22° C | 66% | 1016.3 hPa | 0 mm | - | 438 W/m² | - |
| 1778016440 | 16.67° C | 66% | 1016.4 hPa | 0 mm | - | 292 W/m² | - |
| 1778016138 | 16.67° C | 67% | 1016.4 hPa | 0 mm | - | 163 W/m² | - |
* Rain latest hour (hover to see other rain measurements)
** Current wind speed in m/s (hover to see current wind gust speed)